Hourly Weather Bolshie Verezi

Today, 17 June, Thursday

Time Temperature Precipitation Wind Pressure Humidity
00:00 +16°C° 0.5 mm 6 mps 749 mmHg 89%
01:00 +15°C° 0 mm 6 mps 749 mmHg 89%
02:00 +14°C° 0 mm 6 mps 750 mmHg 89%
03:00 +13°C° 0 mm 5 mps 751 mmHg 89%
04:00 +13°C° 0 mm 5 mps 751 mmHg 86%
05:00 +14°C° 0 mm 5 mps 752 mmHg 83%
06:00 +15°C° 0 mm 5 mps 752 mmHg 80%
07:00 +16°C° 0 mm 5 mps 752 mmHg 72%
08:00 +17°C° 0 mm 5 mps 753 mmHg 63%
09:00 +20°C° 0 mm 5 mps 753 mmHg 55%
10:00 +21°C° 0 mm 6 mps 753 mmHg 52%
11:00 +21°C° 0 mm 6 mps 753 mmHg 49%
12:00 +22°C° 0 mm 6 mps 753 mmHg 46%
13:00 +22°C° 0 mm 5 mps 754 mmHg 50%
14:00 +21°C° 0 mm 5 mps 754 mmHg 53%
15:00 +21°C° 0 mm 4 mps 754 mmHg 57%
16:00 +20°C° 0 mm 4 mps 754 mmHg 60%
17:00 +19°C° 0 mm 3 mps 754 mmHg 63%
18:00 +18°C° 0 mm 3 mps 755 mmHg 65%
19:00 +17°C° 0 mm 3 mps 755 mmHg 66%
20:00 +15°C° 0 mm 4 mps 756 mmHg 68%
21:00 +14°C° 0 mm 4 mps 756 mmHg 69%
22:00 +13°C° 0 mm 4 mps 757 mmHg 71%
23:00 +12°C° 0 mm 4 mps 757 mmHg 74%

Tomorrow, 18 June, Friday

Time Temperature Precipitation Wind Pressure Humidity
00:00 +11°C° 0 mm 3 mps 757 mmHg 76%
01:00 +10°C° 0 mm 3 mps 758 mmHg 76%
02:00 +10°C° 0 mm 3 mps 758 mmHg 76%
03:00 +9°C° 0 mm 3 mps 759 mmHg 77%
04:00 +10°C° 0 mm 4 mps 759 mmHg 74%
05:00 +11°C° 0 mm 4 mps 759 mmHg 71%
06:00 +12°C° 0 mm 5 mps 760 mmHg 68%
07:00 +13°C° 0 mm 5 mps 760 mmHg 64%
08:00 +14°C° 0 mm 6 mps 760 mmHg 59%
09:00 +15°C° 0 mm 6 mps 760 mmHg 55%
10:00 +16°C° 0 mm 6 mps 760 mmHg 52%
11:00 +17°C° 0 mm 6 mps 760 mmHg 50%
12:00 +19°C° 0 mm 6 mps 760 mmHg 48%
13:00 +19°C° 0 mm 5 mps 760 mmHg 48%
14:00 +20°C° 0 mm 5 mps 760 mmHg 47%
15:00 +20°C° 0 mm 4 mps 760 mmHg 46%
16:00 +20°C° 0 mm 4 mps 760 mmHg 51%
17:00 +20°C° 0 mm 3 mps 760 mmHg 56%
18:00 +19°C° 0 mm 2 mps 760 mmHg 61%
19:00 +18°C° 0 mm 2 mps 760 mmHg 62%
20:00 +16°C° 0 mm 1 mps 760 mmHg 64%
21:00 +15°C° 0 mm 1 mps 760 mmHg 65%
22:00 +15°C° 0 mm 2 mps 760 mmHg 65%
23:00 +14°C° 0 mm 2 mps 760 mmHg 66%

Day after tomorrow, 19 June, Saturday

Time Temperature Precipitation Wind Pressure Humidity
00:00 +13°C° 0 mm 3 mps 761 mmHg 66%
01:00 +13°C° 0 mm 3 mps 760 mmHg 69%
02:00 +12°C° 0 mm 3 mps 760 mmHg 71%
03:00 +12°C° 0 mm 3 mps 760 mmHg 74%
04:00 +13°C° 0 mm 4 mps 760 mmHg 75%
05:00 +14°C° 0 mm 4 mps 760 mmHg 75%
06:00 +15°C° 0 mm 4 mps 760 mmHg 76%
07:00 +17°C° 0 mm 5 mps 760 mmHg 73%
08:00 +20°C° 0 mm 5 mps 759 mmHg 70%
09:00 +21°C° 0 mm 6 mps 759 mmHg 67%
10:00 +23°C° 0 mm 6 mps 759 mmHg 64%
11:00 +24°C° 0 mm 6 mps 758 mmHg 60%
12:00 +27°C° 0 mm 7 mps 758 mmHg 57%
13:00 +27°C° 0 mm 6 mps 758 mmHg 57%
14:00 +28°C° 0 mm 6 mps 757 mmHg 57%
15:00 +28°C° 0 mm 6 mps 757 mmHg 57%
16:00 +28°C° 0 mm 6 mps 757 mmHg 61%
17:00 +27°C° 0 mm 6 mps 756 mmHg 65%
18:00 +26°C° 0 mm 5 mps 756 mmHg 69%
19:00 +25°C° 0 mm 5 mps 756 mmHg 74%
20:00 +22°C° 0 mm 5 mps 756 mmHg 80%
21:00 +21°C° 0 mm 5 mps 756 mmHg 85%
22:00 +20°C° 0 mm 4 mps 757 mmHg 87%
23:00 +20°C° 0 mm 4 mps 757 mmHg 88%

20 June, Sunday

Time Temperature Precipitation Wind Pressure Humidity
00:00 +19°C° 0 mm 4 mps 757 mmHg 90%
01:00 +19°C° 0 mm 4 mps 757 mmHg 91%
02:00 +18°C° 0 mm 4 mps 757 mmHg 92%
03:00 +18°C° 0 mm 4 mps 757 mmHg 93%
04:00 +19°C° 0 mm 4 mps 757 mmHg 89%
05:00 +20°C° 0 mm 4 mps 757 mmHg 85%
06:00 +21°C° 0 mm 4 mps 757 mmHg 81%
07:00 +23°C° 0 mm 4 mps 757 mmHg 75%
08:00 +25°C° 0 mm 4 mps 757 mmHg 69%
09:00 +27°C° 0 mm 4 mps 757 mmHg 63%
10:00 +28°C° 0 mm 4 mps 757 mmHg 59%
11:00 +29°C° 0 mm 4 mps 757 mmHg 55%
12:00 +30°C° 0 mm 5 mps 757 mmHg 50%
13:00 +30°C° 0 mm 4 mps 757 mmHg 50%
14:00 +32°C° 0 mm 4 mps 757 mmHg 49%
15:00 +32°C° 0 mm 4 mps 757 mmHg 48%
16:00 +30°C° 0 mm 3 mps 757 mmHg 54%
17:00 +29°C° 0 mm 3 mps 757 mmHg 60%
18:00 +29°C° 0 mm 2 mps 757 mmHg 66%
19:00 +27°C° 0 mm 2 mps 757 mmHg 71%
20:00 +25°C° 0 mm 1 mps 757 mmHg 75%
21:00 +23°C° 0 mm 1 mps 757 mmHg 80%
22:00 +23°C° 0 mm 1 mps 757 mmHg 81%
23:00 +23°C° 0 mm 1 mps 757 mmHg 82%

21 June, Monday

Time Temperature Precipitation Wind Pressure Humidity
00:00 +22°C° 0 mm 1 mps 757 mmHg 82%
01:00 +22°C° 0 mm 1 mps 757 mmHg 83%
02:00 +22°C° 0 mm 1 mps 757 mmHg 84%
03:00 +22°C° 0 mm 1 mps 757 mmHg 85%
04:00 +22°C° 0 mm 1 mps 757 mmHg 84%
05:00 +23°C° 0 mm 2 mps 757 mmHg 83%
06:00 +23°C° 0 mm 2 mps 757 mmHg 81%
07:00 +24°C° 0 mm 2 mps 757 mmHg 76%
08:00 +26°C° 0 mm 2 mps 757 mmHg 71%
09:00 +27°C° 0 mm 3 mps 757 mmHg 65%
10:00 +28°C° 0 mm 3 mps 757 mmHg 62%
11:00 +29°C° 0 mm 3 mps 757 mmHg 59%
12:00 +30°C° 0 mm 4 mps 757 mmHg 55%
13:00 +30°C° 0.1 mm 4 mps 757 mmHg 54%
14:00 +30°C° 0.1 mm 4 mps 756 mmHg 53%
15:00 +30°C° 0.1 mm 4 mps 756 mmHg 53%
16:00 +29°C° 0 mm 4 mps 756 mmHg 57%
17:00 +28°C° 0 mm 4 mps 756 mmHg 62%
18:00 +27°C° 0 mm 4 mps 756 mmHg 67%
19:00 +26°C° 0 mm 4 mps 756 mmHg 71%
20:00 +24°C° 0 mm 3 mps 756 mmHg 75%
21:00 +22°C° 0 mm 3 mps 756 mmHg 79%
22:00 +21°C° 0 mm 3 mps 756 mmHg 82%
23:00 +21°C° 0 mm 3 mps 755 mmHg 84%

22 June, Tuesday

Time Temperature Precipitation Wind Pressure Humidity
00:00 +20°C° 0 mm 3 mps 755 mmHg 87%
01:00 +20°C° 0 mm 3 mps 755 mmHg 86%
02:00 +19°C° 0 mm 3 mps 755 mmHg 86%
03:00 +19°C° 0 mm 2 mps 755 mmHg 86%
04:00 +20°C° 0 mm 3 mps 756 mmHg 83%
05:00 +21°C° 0 mm 3 mps 756 mmHg 81%
06:00 +22°C° 0 mm 3 mps 756 mmHg 78%
07:00 +25°C° 0 mm 3 mps 756 mmHg 73%
08:00 +26°C° 0 mm 3 mps 756 mmHg 68%
09:00 +28°C° 0 mm 3 mps 756 mmHg 63%
10:00 +29°C° 0 mm 3 mps 756 mmHg 60%
11:00 +30°C° 0 mm 3 mps 756 mmHg 56%
12:00 +31°C° 0 mm 3 mps 755 mmHg 52%
13:00 +31°C° 0 mm 3 mps 755 mmHg 53%
14:00 +31°C° 0 mm 3 mps 755 mmHg 53%
15:00 +31°C° 0 mm 2 mps 755 mmHg 54%
16:00 +30°C° 0 mm 2 mps 755 mmHg 59%
17:00 +29°C° 0 mm 2 mps 755 mmHg 63%
18:00 +28°C° 0 mm 2 mps 755 mmHg 68%
19:00 +27°C° 0 mm 2 mps 755 mmHg 72%
20:00 +25°C° 0 mm 2 mps 755 mmHg 75%
21:00 +24°C° 0 mm 2 mps 756 mmHg 79%
22:00 +23°C° 0 mm 2 mps 756 mmHg 81%
23:00 +21°C° 0 mm 2 mps 756 mmHg 82%
Show more